EW2563 Weather Reports


time (UTC)temp
C
wind
direction
speed
KPH
gust
KPH
rain 1hr
cm
rain 24hr
cm
rain mn
cm
humidity
%
barometer
mb
20260504044552 6 243 0.0 1.6 0.00 0.00 0.00 65 1012.1
20260504043053 6 265 0.0 1.6 0.00 0.00 0.00 70 1012.0
20260504041557 6 270 1.6 3.2 0.00 0.00 0.00 68 1011.9
20260504034601 7 259 0.0 1.6 0.00 0.00 0.00 63 1011.8
20260504033113 7 264 0.0 1.6 0.00 0.00 0.00 65 1011.8
20260504031605 7 264 0.0 1.6 0.00 0.00 0.00 65 1011.7
20260504030008 7 259 1.6 1.6 0.00 0.00 0.00 65 1011.8
20260504024533 7 266 0.0 1.6 0.00 0.00 0.00 64 1011.8
20260504023015 8 266 0.0 1.6 0.00 0.00 0.00 60 1011.7
20260504021528 8 264 0.0 1.6 0.00 0.00 0.00 56 1011.7
20260504020047 8 265 0.0 1.6 0.00 0.00 0.00 55 1011.6
20260504014547 10 271 0.0 1.6 0.00 0.00 0.00 54 1011.7
20260504013104 10 273 0.0 1.6 0.00 0.00 0.00 49 1011.5
20260504011553 11 281 0.0 3.2 0.00 0.00 0.00 48 1011.4
20260504010059 12 192 0.0 4.8 0.00 0.00 0.00 43 1011.2
20260504004623 12 180 0.0 4.8 0.00 0.00 0.00 43 1011.1
20260504003004 12 210 0.0 6.4 0.00 0.00 0.00 42 1010.9
20260504001514 12 258 1.6 8.0 0.00 0.00 0.00 41 1010.8
20260504000017 13 244 1.6 6.4 0.00 0.00 0.00 41 1010.7
20260503234530 13 150 0.0 8.0 0.00 0.00 0.00 39 1010.7
20260503233044 15 245 1.6 8.0 0.00 0.00 0.00 36 1010.6
20260503231551 15 287 4.8 11.3 0.00 0.00 0.00 34 1010.5
20260503230051 15 214 3.2 9.7 0.00 0.00 0.00 35 1010.5
20260503224549 15 257 3.2 12.9 0.00 0.00 0.00 35 1010.4
20260503223052 15 306 6.4 12.9 0.00 0.00 0.00 34 1010.4
20260503221554 15 259 8.0 20.9 0.00 0.00 0.00 33 1010.5
20260503220058 15 274 8.0 20.9 0.00 0.00 0.00 34 1010.5
20260503213006 15 226 11.3 22.5 0.00 0.00 0.00 34 1010.4
20260503211504 15 295 6.4 22.5 0.00 0.00 0.00 36 1010.4
20260503210006 15 267 8.0 24.1 0.00 0.00 0.00 34 1010.4
20260503204519 15 233 9.7 24.1 0.00 0.00 0.00 33 1010.4
20260503203023 15 266 14.5 30.6 0.00 0.00 0.00 33 1010.4
20260503201525 15 279 6.4 22.5 0.00 0.00 0.00 34 1010.5
20260503200033 15 293 8.0 20.9 0.00 0.00 0.00 35 1010.5
20260503194548 14 347 9.7 29.0 0.00 0.00 0.00 35 1010.8
20260503193054 14 293 8.0 19.3 0.00 0.00 0.00 33 1011.0
20260503191548 14 287 3.2 14.5 0.00 0.00 0.00 35 1011.1
20260503184516 13 243 11.3 25.7 0.00 0.00 0.00 36 1011.3
20260503183027 13 277 6.4 16.1 0.00 0.00 0.00 36 1011.5
20260503181528 13 259 4.8 19.3 0.00 0.00 0.00 35 1011.6
20260503180032 13 257 12.9 33.8 0.00 0.00 0.00 34 1011.9
20260503174545 13 272 4.8 16.1 0.00 0.00 0.00 37 1012.1
20260503173049 12 315 3.2 27.4 0.00 0.00 0.00 37 1012.2
20260503171548 12 315 8.0 17.7 0.00 0.00 0.00 38 1012.4
20260503160110 10 269 4.8 19.3 0.00 0.00 0.00 41 1013.3
20260503081501 3 269 0.0 4.8 0.00 0.00 0.00 73 1012.9
20260503071532 4 349 1.6 4.8 0.00 0.00 0.00 69 1012.6
20260503054554 6 29 4.8 12.9 0.00 0.08 0.00 64 1012.7